Location: Antichan
(42.9728°N, 0.6667°E)
Time: 14:14:45
(UTC+00:00)

Cosmos 2219 Rocket - Pass Details

Date: 15 August 2020
Orbit: 826 x 848 km, 71.0° (Epoch: 24 September)

Event Time Altitude Azimuth Distance (km) Brightness Sun altitude
Rises 21:36:05 0° 342° (NNW) 3,417 6.5 -24.3°
Reaches altitude 10° 21:38:51 10° 353° (N) 2,479 5.4 -24.6°
Maximum altitude 21:43:49 30° 54° (NE) 1,477 3.4 -25.1°
Enters shadow 21:44:37 29° 70° (ENE) 1,511 3.3 -25.2°
